[[{"header":{"parameterUnit":"m.s-1","parameterCategory":1,"la1":30.2991,"la2":30.254,"lo1":-89.0895,"lo2":-89.0444,"dy":0.0017,"dx":0.0017,"nx":28,"ny":28,"refTime":"2023-09-06T03:00:00:Z","depth":0,"parameterNumber":2,"parameterNumberName":"U-component_of_WINDS"},"data":[0,0,0,0,0,0,0,0,0,0,0,0,0,0,0,0,0,0,0,0,0,0,0,0,0,0,0,0,0,0,0,0,0,0,0,0,0,0,0,0,0,0,0,0,0,0,0,0,0,0,0,0,0,0,0,0,0,0,0.9572,0.9572,0,0.9583,0.9583,0.9583,0.957,0.957,0.957,0.9569,0.9582,0.9583,0.9583,0,0,0,0,0,0,0,0,0,0,0,0,0,0.9539,0.954,0.9572,0.9572,0.9572,0.9583,0.9583,0.9583,0.9571,0.957,0.9569,0.9569,0.9581,0.9582,0.9583,0,0,0,0,0,0,0,0,0,0,0,0,0,0.9552,0.954,0.9571,0.9567,0.9566,0.9583,0.9583,0.9583,0.9571,0.957,0.9569,0.9569,0.9581,0.9582,0.9583,0.9606,0,0,0.9587,0.9588,0,0,0,0,0,0,0,0,0.9551,0.9553,0.9567,0.9567,0.9567,0.9575,0.9576,0.9591,0.9571,0.9569,0.9569,0.9568,0.958,0.9581,0.9585,0.9606,0.9607,0.9587,0.9588,0.9588,0.9589,0,0,0,0,0,0,0,0.955,0.9553,0.9576,0.9568,0.9567,0.9564,0.9565,0.9579,0.9579,0.9569,0.9568,0.957,0.958,0.9584,0.9585,0.9607,0.9587,0.9588,0.9589,0.9589,0.9646,0.9647,0,0,0,0,0,0,0.955,0.9552,0.9576,0.9576,0.9557,0.9565,0.9567,0.9573,0.9578,0.9579,0.957,0.9569,0.9582,0.9584,0.9586,0.9611,0.9588,0.959,0.959,0.9645,0.9646,0.9647,0,0,0,0,0,0,0.9549,0.9552,0.9575,0.9564,0.9567,0.9567,0.9574,0.9573,0.9578,0.9579,0.9579,0.9575,0.9582,0.9584,0.96,0.9611,0.959,0.9591,0.9644,0.9645,0.9647,0.9662,0,0,0,0,0,0,0.9548,0.9552,0.956,0.9564,0.9567,0.959,0.9575,0.9574,0.958,0.9578,0.9583,0.9583,0.9581,0.9599,0.9602,0.9612,0.9592,0.9643,0.9645,0.9646,0.9661,0.9664,0.9666,0,0,0,0,0,0.9547,0.9564,0.9561,0.9564,0.9578,0.959,0.9592,0.9589,0.9581,0.9589,0.959,0.9583,0.961,0.9601,0.9604,0.9615,0.9643,0.9644,0.9646,0.9659,0.9663,0.9666,0,0,0,0,0,0,0.9562,0.9565,0.9561,0.958,0.9585,0.9588,0.9598,0.9593,0.9601,0.9599,0.9596,0.9597,0.9614,0.9617,0.9606,0.9636,0.9625,0.9627,0.9634,0.9637,0.964,0.9639,0.9593,0,0,0,0,0,0.9567,0.9577,0.958,0.9596,0.9599,0.9598,0.9604,0.9601,0.9606,0.9608,0.9611,0.9616,0.9626,0.9632,0.9641,0.9662,0.9662,0.9671,0.9674,0.9676,0.9678,0.9688,0.9692,0.9653,0.9653,0.9653,0,0,0.9578,0.9581,0.9588,0.9599,0.9603,0.9613,0.96,0.9612,0.9619,0.961,0.9625,0.9627,0.9633,0.9652,0.966,0.9654,0.9689,0.9678,0.968,0.9681,0.969,0.9694,0.9697,0.9654,0.9654,0.9654,0,0,0.9604,0.9608,0.9621,0.9625,0.9631,0.963,0.9634,0.9638,0.9639,0.9654,0.9647,0.9656,0.9673,0.9677,0.9682,0.9709,0.9703,0.9712,0.9726,0.9736,0.9739,0.9742,0.9751,0.9754,0.9714,0.9714,0.9714,0,0.9617,0.9632,0.9629,0.9641,0.9646,0.9638,0.9652,0.9656,0.9664,0.9668,0.9661,0.9682,0.9685,0.9704,0.971,0.9715,0.9718,0.9711,0.9739,0.9742,0.9744,0.9752,0.9756,0.9715,0.9715,0.9715,0.9715,0,0.9647,0.9658,0.9668,0.9676,0.9682,0.9695,0.9694,0.9701,0.9698,0.9698,0.9714,0.9718,0.9727,0.9732,0.9729,0.975,0.9746,0.974,0.9728,0.9749,0.9756,0.976,0.9717,0.9716,0.9716,0.9716,0,0,0.9681,0.9687,0.9691,0.9694,0.97,0.9708,0.9721,0.9729,0.9735,0.9741,0.9751,0.9766,0.9759,0.9764,0.9762,0.9771,0.9791,0.9764,0.9764,0.9767,0.9813,0.9817,0.9821,0.9788,0.9789,0.9789,0.9812,0,0.9705,0.9726,0.9724,0.9744,0.9754,0.9747,0.9758,0.9763,0.9763,0.9772,0.9773,0.9782,0.9774,0.9777,0.9786,0.9787,0.98,0.9785,0.9796,0.9797,0.9794,0.9825,0.9829,0.9851,0.9815,0.9816,0.9816,0,0.9736,0.9743,0.9764,0.9768,0.9772,0.9781,0.9789,0.9797,0.9803,0.9803,0.9808,0.9805,0.9817,0.9806,0.9823,0.9813,0.9818,0.9819,0.982,0.982,0.9807,0.9824,0.9858,0.9861,0.9821,0.9821,0.982,0,0.9756,0.9771,0.9785,0.9789,0.9794,0.9801,0.9804,0.9809,0.9814,0.9821,0.9824,0.9833,0.9837,0.9844,0.9843,0.9835,0.986,0.9849,0.9859,0.9859,0.9864,0.9863,0.9897,0.9869,0.9869,0.9869,0.9869,0,0.9783,0.9795,0.9795,0.9803,0.9817,0.9815,0.9829,0.9831,0.9836,0.9844,0.984,0.9848,0.9847,0.9855,0.9855,0.9868,0.987,0.987,0.987,0.987,0.987,0.9872,0.987,0.987,0.987,0.9869,0.9869,0,0.9807,0.9807,0.9822,0.9827,0.9828,0.9838,0.9842,0.985,0.9851,0.9862,0.9864,0.9865,0.9875,0.9875,0.9886,0.9886,0.9902,0.99,0.99,0.9899,0.9909,0.9907,0.9944,0.9949,0.9919,0.9919,0.992,0,0.9823,0.9833,0.9838,0.9844,0.9847,0.9856,0.9861,0.986,0.9866,0.9873,0.988,0.9889,0.9896,0.9912,0.9914,0.9922,0.992,0.9932,0.9921,0.9921,0.9918,0.9917,0.9918,0.9934,0.9934,0.9934,0.9935,0,0.9851,0.9851,0.9859,0.9867,0.9873,0.988,0.9885,0.989,0.9889,0.9896,0.9906,0.9911,0.9923,0.9932,0.994,0.9943,0.9938,0.9938,0.9941,0.9941,0.9939,0.9939,0.9904,0.9937,0.9937,0.9937,0.9937,0.9937,0.9871,0.9879,0.9884,0.9893,0.9897,0.9903,0.991,0.9912,0.992,0.9929,0.9928,0.9939,0.9944,0.9954,0.9958,0.9966,0.9962,0.9966,0.9967,0.9967,0.9968,0.9939,0.9968,0.9968,0.9968,0.9967,0.9967,0,0.9898,0.9901,0.9909,0.9917,0.9924,0.992,0.9926,0.9932,0.9942,0.9947,0.9954,0.9965,0.9974,0.9977,0.9985,0.9991,0.9989,0.9993,0.9992,0.9992,0.9972,0.9968,0.9994,0.9994,0.9994,0.9994,0.9994,0.9994,0.9912,0.9925,0.9926,0.9941,0.9944,0.9954,0.9958,0.9963,0.9967,0.9979,0.9987,0.9988,0.9992,1.0001,1.0009,1.001,1.0012,1.0017,1.0016,0.9997,0.9994,0.9991,0.9988,1.0018,1.0018,1.0036,1.0036,1.0036]},{"header":{"parameterUnit":"m.s-1","parameterCategory":1,"la1":30.2991,"la2":30.254,"lo1":-89.0895,"lo2":-89.0444,"dy":0.0017,"dx":0.0017,"nx":28,"ny":28,"refTime":"2023-09-06T03:00:00:Z","depth":0,"parameterNumber":3,"parameterNumberName":"V-component_of_WINDS"},"data":[0,0,0,0,0,0,0,0,0,0,0,0,0,0,0,0,0,0,0,0,0,0,0,0,0,0,0,0,0,0,0,0,0,0,0,0,0,0,0,0,0,0,0,0,0,0,0,0,0,0,0,0,0,0,0,0,0,0,5.1535,5.1535,0,5.1513,5.1513,5.1513,5.1433,5.1431,5.1429,5.1427,5.1407,5.1408,5.1409,0,0,0,0,0,0,0,0,0,0,0,0,0,5.1509,5.151,5.1535,5.1535,5.1534,5.1513,5.1513,5.1513,5.1433,5.1431,5.1429,5.1427,5.1406,5.1408,5.1409,0,0,0,0,0,0,0,0,0,0,0,0,0,5.1507,5.1511,5.1535,5.1492,5.1488,5.1513,5.1513,5.1513,5.1434,5.1431,5.1428,5.1426,5.1406,5.1407,5.1409,5.1474,0,0,5.1414,5.1415,0,0,0,0,0,0,0,0,5.1508,5.1508,5.1499,5.1495,5.1491,5.1473,5.1496,5.15,5.1434,5.1454,5.1427,5.1424,5.1431,5.143,5.1432,5.1473,5.1473,5.1415,5.1416,5.1416,5.1417,0,0,0,0,0,0,0,5.1508,5.1509,5.1526,5.1499,5.1494,5.1475,5.1471,5.1497,5.1458,5.1452,5.1447,5.1445,5.1428,5.1431,5.1431,5.1472,5.1414,5.1416,5.1417,5.1418,5.1566,5.1568,0,0,0,0,0,0,5.1514,5.151,5.1527,5.1526,5.1493,5.1477,5.1474,5.1481,5.1458,5.1452,5.1447,5.1441,5.1429,5.1429,5.143,5.1504,5.1416,5.1418,5.1419,5.1563,5.1566,5.1569,0,0,0,0,0,0,5.1514,5.1516,5.1528,5.1516,5.1516,5.1481,5.149,5.1482,5.1485,5.1454,5.1447,5.1457,5.1427,5.1428,5.1464,5.1503,5.1419,5.142,5.1559,5.1564,5.1568,5.1654,0,0,0,0,0,0,5.1513,5.1517,5.1541,5.1517,5.1517,5.1562,5.1492,5.1484,5.1488,5.148,5.1461,5.1455,5.1425,5.1462,5.1466,5.1504,5.1422,5.1556,5.1561,5.1567,5.1648,5.1661,5.1672,0,0,0,0,0,5.1513,5.1566,5.1542,5.1545,5.1546,5.1564,5.1564,5.1528,5.1491,5.1515,5.1496,5.1456,5.1498,5.1466,5.147,5.1509,5.1553,5.156,5.1566,5.1642,5.1658,5.1672,0,0,0,0,0,0,5.1595,5.1562,5.1535,5.1583,5.1577,5.155,5.1579,5.1546,5.155,5.1543,5.1498,5.1494,5.1537,5.1527,5.1491,5.1571,5.1519,5.1527,5.1576,5.1591,5.1603,5.1604,5.1423,0,0,0,0,0,5.1619,5.1636,5.1606,5.1651,5.1649,5.1616,5.1622,5.1594,5.1586,5.1584,5.1566,5.1561,5.1572,5.1581,5.1591,5.1646,5.1641,5.1675,5.1688,5.1698,5.1704,5.1733,5.1748,5.1591,5.1591,5.1591,0,0,5.1668,5.1652,5.1666,5.1667,5.1659,5.1678,5.1614,5.1636,5.165,5.1587,5.1619,5.1607,5.1598,5.1644,5.1664,5.1637,5.1747,5.1706,5.1715,5.1716,5.1741,5.1756,5.1769,5.1595,5.1595,5.1594,0,0,5.1767,5.1757,5.1793,5.1787,5.1775,5.1752,5.1761,5.174,5.1729,5.1761,5.1715,5.1731,5.1752,5.1747,5.1748,5.1846,5.1809,5.185,5.1914,5.1943,5.1955,5.1966,5.2,5.2013,5.1857,5.1858,5.1858,0,5.183,5.1856,5.1816,5.1841,5.1843,5.1788,5.1824,5.182,5.1812,5.1815,5.1786,5.1811,5.1801,5.1845,5.1869,5.1872,5.1881,5.1852,5.1956,5.1967,5.1976,5.2008,5.2021,5.1863,5.1862,5.1862,5.1861,0,5.1933,5.1952,5.1982,5.1976,5.1981,5.2012,5.1978,5.1989,5.1961,5.1942,5.1975,5.1961,5.1967,5.1975,5.1949,5.2016,5.2,5.1964,5.1911,5.1996,5.2026,5.2038,5.187,5.1868,5.1866,5.1865,0,0,5.2082,5.2054,5.2066,5.2062,5.2046,5.206,5.2089,5.2093,5.2103,5.2101,5.2123,5.2143,5.211,5.2111,5.2084,5.2109,5.2187,5.207,5.2069,5.2091,5.2259,5.2285,5.23,5.2163,5.2165,5.2167,5.226,0,5.2175,5.2222,5.2187,5.224,5.2256,5.2204,5.2229,5.2223,5.2205,5.2218,5.2199,5.2213,5.2169,5.2169,5.2191,5.2173,5.222,5.2166,5.2184,5.2185,5.2186,5.2316,5.2344,5.2432,5.2271,5.2273,5.2274,0,5.229,5.2292,5.2346,5.2326,5.2332,5.2355,5.2357,5.2369,5.2361,5.2346,5.2348,5.2314,5.2341,5.229,5.2327,5.2291,5.2297,5.2289,5.2291,5.2291,5.2234,5.2318,5.2459,5.2472,5.2292,5.2291,5.229,0,5.2392,5.2409,5.2443,5.2442,5.242,5.2437,5.2429,5.2418,5.2423,5.2425,5.2428,5.2434,5.2436,5.2442,5.2411,5.2377,5.2452,5.2398,5.2441,5.2442,5.2458,5.2457,5.2601,5.2464,5.2464,5.2463,5.2463,0,5.2499,5.2534,5.2488,5.2509,5.2547,5.2508,5.2547,5.2533,5.2524,5.2542,5.2498,5.2516,5.2474,5.2488,5.2464,5.2498,5.25,5.2489,5.2483,5.2493,5.2494,5.2495,5.2488,5.2467,5.2466,5.2465,5.2465,0,5.2619,5.259,5.2624,5.2601,5.2596,5.2625,5.2605,5.2624,5.2604,5.2627,5.263,5.26,5.2614,5.2584,5.2594,5.2578,5.2626,5.261,5.2629,5.2623,5.2667,5.2663,5.2816,5.2833,5.2686,5.2688,5.2689,0,5.2689,5.2714,5.2694,5.2702,5.2697,5.2711,5.2716,5.2679,5.2686,5.2679,5.2699,5.2709,5.2715,5.274,5.2719,5.2726,5.271,5.2763,5.271,5.272,5.2709,5.2708,5.271,5.2773,5.2775,5.2776,5.2777,0,5.2815,5.28,5.2808,5.2812,5.2819,5.282,5.2819,5.2828,5.2789,5.2799,5.2813,5.2818,5.2828,5.2838,5.2841,5.2833,5.2799,5.2794,5.2804,5.2814,5.2824,5.2819,5.2657,5.2791,5.2789,5.2788,5.2788,5.2787,5.2911,5.2932,5.292,5.2931,5.2926,5.2926,5.2942,5.2925,5.2935,5.294,5.2918,5.2936,5.2928,5.2928,5.2924,5.2938,5.2914,5.2929,5.2933,5.2937,5.2943,5.2823,5.2939,5.2938,5.2938,5.2937,5.2937,0,5.3035,5.3025,5.3036,5.3034,5.3043,5.301,5.3007,5.3017,5.3033,5.3028,5.3035,5.3051,5.3061,5.3041,5.3049,5.3064,5.3049,5.3067,5.3065,5.3064,5.2965,5.2955,5.308,5.308,5.308,5.308,5.308,5.308,5.31,5.3132,5.3116,5.3145,5.3135,5.3152,5.3153,5.3153,5.3148,5.3168,5.3176,5.3163,5.3152,5.3158,5.3167,5.316,5.3165,5.3189,5.3178,5.3085,5.3071,5.3058,5.3048,5.3191,5.3191,5.3275,5.3276,5.3277]}]]